Location: Poughquag
(41.6090°N, 73.6820°W)
Time: 12:16:25
(UTC-04:00)

Transit 4A - Pass Details

Date: 29 May 2020
Orbit: 866 x 978 km, 66.8° (Epoch: 06 July)

Event Time Altitude Azimuth Distance (km) Brightness Sun altitude
Rises 04:45:49 0° 263° (W) 3,451 - -6.8°
Exits shadow 04:46:32 - 267° (W) 3,239 10.2 -6.7°
Reaches altitude 10° 04:49:19 10° 285° (WNW) 2,527 9.8 -6.3°
Maximum altitude 04:52:51 16° 323° (NW) 2,135 9.8 -5.7°
Drops below altitude 10° 04:56:26 10° 0° (N) 2,566 10.8 -5.2°
Sets 05:00:03 0° 22° (NNE) 3,532 12.0 -4.6°
